Devils Lake, ND

1:28 PM CST on February 25, 2017 (GMT -0600)
Devils Lake Municipal

Weather History for KDVL - August, 2013

Change the Weather History Date:

Sunday, August 4, 2013

  Actual Average Record
Temperature  
Mean Temperature 68 °F -  
Max Temperature 75 °F 80 °F 98 °F (1959)
Min Temperature 62 °F 55 °F 42 °F (1967)
Cooling Degree Days 4    
Growing Degree Days 18 (Base 50)    
Moisture  
Dew Point 52 °F    
Average Humidity 59    
Maximum Humidity 83    
Minimum Humidity 46    
Precipitation  
Precipitation 0.00 in - - ()
Sea Level Pressure  
Sea Level Pressure 30.07 in    
Wind  
Wind Speed 11 mph (South)    
Max Wind Speed 18 mph    
Max Gust Speed 24 mph    
Visibility 10 miles    
Events      
Averages and records for this station are not official NWS values.
T = Trace of Precipitation, MM = Missing Value Source: NWS Daily Summary

Daily Weather History Graph

Daily Weather History Graph

Search for Another Location

Airport or City:

Trip Planner

Search our weather history database for the weather conditions in past years. The results will help you decide how hot, cold, wet, or windy it might be!

Date:

Astronomy

Aug. 04, 2013 Rise Set
Actual Time 6:15 AM CDT 9:06 PM CDT
Civil Twilight 5:39 AM CDT 9:42 PM CDT
Nautical Twilight 4:53 AM CDT 10:28 PM CDT
Astronomical Twilight 3:58 AM CDT 11:23 PM CDT
Moon 4:16 AM CDT (8/4) 7:30 PM CDT (8/4)
Length of Visible Light 16h 02m
Length of Day
14h 50m
Waning Crescent, 4% of the Moon is Illuminated
Aug 4
Waning Crescent
Aug 6
New
Aug 14
First Quarter
Aug 20
Full
Aug 28
Last Quarter

Hourly Weather History & Observations

Time (CDT) Temp. Dew Point Humidity Pressure Visibility Wind Dir Wind Speed Gust Speed Precip Events Conditions
12:15 AM 62.6 °F 50.0 °F 63% 30.23 in 10.0 mi SSE 9.2 mph - N/A   Clear
12:35 AM 62.6 °F 50.0 °F 63% 30.23 in 10.0 mi SE 9.2 mph - N/A   Clear
12:55 AM 62.6 °F 48.2 °F 59% 30.23 in 10.0 mi SE 10.4 mph - N/A   Clear
1:15 AM 62.6 °F 48.2 °F 59% 30.23 in 10.0 mi SSE 12.7 mph - N/A   Clear
1:35 AM 62.6 °F 46.4 °F 55% 30.23 in 10.0 mi SSE 9.2 mph - N/A   Mostly Cloudy
1:55 AM 62.6 °F 48.2 °F 59% 30.21 in 10.0 mi SSE 10.4 mph 16.1 mph N/A   Overcast
2:15 AM 62.6 °F 46.4 °F 55% 30.20 in 10.0 mi SSE 10.4 mph - N/A   Overcast
2:35 AM 62.6 °F 48.2 °F 59% 30.20 in 10.0 mi SSE 11.5 mph - N/A   Mostly Cloudy
2:55 AM 62.6 °F 48.2 °F 59% 30.19 in 10.0 mi SSE 9.2 mph - N/A   Mostly Cloudy
3:15 AM 62.6 °F 46.4 °F 55% 30.18 in 10.0 mi SSE 15.0 mph 20.7 mph N/A   Mostly Cloudy
3:35 AM 62.6 °F 46.4 °F 55% 30.18 in 10.0 mi SE 10.4 mph - N/A   Overcast
3:55 AM 62.6 °F 48.2 °F 59% 30.17 in 10.0 mi SE 11.5 mph - N/A   Overcast
4:15 AM 62.6 °F 46.4 °F 55% 30.17 in 10.0 mi SSE 12.7 mph - N/A   Overcast
4:35 AM 62.6 °F 46.4 °F 55% 30.17 in 10.0 mi SSE 16.1 mph - N/A   Overcast
4:55 AM 62.6 °F 46.4 °F 55% 30.17 in 10.0 mi SSE 12.7 mph 18.4 mph N/A   Overcast
5:15 AM 62.6 °F 46.4 °F 55% 30.17 in 10.0 mi SSE 15.0 mph - N/A   Overcast
5:35 AM 62.6 °F 46.4 °F 55% 30.16 in 10.0 mi SSE 13.8 mph 18.4 mph N/A   Overcast
5:55 AM 62.6 °F 46.4 °F 55% 30.15 in 10.0 mi SSE 10.4 mph - N/A   Overcast
6:15 AM 62.6 °F 46.4 °F 55% 30.15 in 10.0 mi SSE 11.5 mph - N/A   Overcast
6:35 AM 62.6 °F 46.4 °F 55% 30.15 in 10.0 mi SSE 11.5 mph - N/A   Overcast
6:55 AM 62.6 °F 46.4 °F 55% 30.14 in 10.0 mi SSE 10.4 mph - N/A   Overcast
7:15 AM 62.6 °F 46.4 °F 55% 30.13 in 10.0 mi SSE 12.7 mph 17.3 mph N/A   Overcast
7:35 AM 62.6 °F 46.4 °F 55% 30.13 in 10.0 mi SSE 13.8 mph - N/A   Overcast
7:55 AM 62.6 °F 46.4 °F 55% 30.13 in 10.0 mi South 12.7 mph - N/A   Overcast
8:15 AM 62.6 °F 46.4 °F 55% 30.14 in 10.0 mi South 11.5 mph - N/A   Overcast
8:35 AM 64.4 °F 46.4 °F 52% 30.14 in 10.0 mi South 17.3 mph - N/A   Overcast
8:55 AM 64.4 °F 48.2 °F 56% 30.14 in 10.0 mi SSE 12.7 mph - N/A   Scattered Clouds
9:15 AM 64.4 °F 48.2 °F 56% 30.14 in 10.0 mi SSE 11.5 mph 17.3 mph N/A   Mostly Cloudy
9:35 AM 64.4 °F 48.2 °F 56% 30.14 in 10.0 mi SSE 11.5 mph 19.6 mph N/A   Mostly Cloudy
9:55 AM 64.4 °F 48.2 °F 56% 30.14 in 10.0 mi SSE 17.3 mph - N/A   Overcast
10:15 AM 66.2 °F 48.2 °F 52% 30.14 in 10.0 mi South 15.0 mph - N/A   Overcast
10:35 AM 68.0 °F 48.2 °F 49% 30.14 in 10.0 mi South 16.1 mph 21.9 mph N/A   Scattered Clouds
10:55 AM 69.8 °F 48.2 °F 46% 30.14 in 10.0 mi South 18.4 mph - N/A   Scattered Clouds
11:15 AM 69.8 °F 50.0 °F 49% 30.13 in 10.0 mi SSE 16.1 mph 20.7 mph N/A   Scattered Clouds
11:35 AM 69.8 °F 51.8 °F 53% 30.12 in 10.0 mi South 16.1 mph 23.0 mph N/A   Partly Cloudy
11:55 AM 71.6 °F 53.6 °F 53% 30.11 in 10.0 mi South 18.4 mph 24.2 mph N/A   Scattered Clouds
12:15 PM 71.6 °F 53.6 °F 53% 30.10 in 10.0 mi SSE 15.0 mph - N/A   Mostly Cloudy
12:35 PM 71.6 °F 53.6 °F 53% 30.08 in 10.0 mi SSE 12.7 mph 21.9 mph N/A   Overcast
12:55 PM 71.6 °F 55.4 °F 57% 30.08 in 10.0 mi SSE 11.5 mph - N/A   Overcast
1:15 PM 71.6 °F 55.4 °F 57% 30.06 in 10.0 mi South 13.8 mph - N/A   Overcast
1:35 PM 73.4 °F 55.4 °F 53% 30.06 in 10.0 mi South 12.7 mph 18.4 mph N/A   Overcast
1:55 PM 73.4 °F 55.4 °F 53% 30.04 in 10.0 mi SSE 13.8 mph - N/A   Overcast
2:15 PM 75.2 °F 55.4 °F 50% 30.04 in 10.0 mi South 13.8 mph - N/A   Overcast
2:35 PM 73.4 °F 55.4 °F 53% 30.03 in 10.0 mi SSE 12.7 mph - N/A   Overcast
2:55 PM 75.2 °F 55.4 °F 50% 30.02 in 10.0 mi SSE 11.5 mph - N/A   Overcast
3:15 PM 73.4 °F 55.4 °F 53% 30.01 in 10.0 mi South 11.5 mph - N/A   Overcast
3:35 PM 73.4 °F 57.2 °F 57% 30.00 in 10.0 mi SSW 9.2 mph - N/A   Overcast
3:55 PM 71.6 °F 57.2 °F 60% 30.00 in 10.0 mi SSW 12.7 mph 17.3 mph N/A   Overcast
4:15 PM 71.6 °F 57.2 °F 60% 29.99 in 10.0 mi SSW 15.0 mph 18.4 mph N/A   Overcast
4:35 PM 71.6 °F 57.2 °F 60% 29.99 in 10.0 mi SSW 12.7 mph - N/A   Overcast
4:55 PM 71.6 °F 57.2 °F 60% 29.98 in 10.0 mi SSW 10.4 mph 16.1 mph N/A   Overcast
5:15 PM 71.6 °F 57.2 °F 60% 29.97 in 10.0 mi South 12.7 mph - N/A   Overcast
5:35 PM 71.6 °F 55.4 °F 57% 29.97 in 10.0 mi South 12.7 mph - N/A   Overcast
5:55 PM 71.6 °F 57.2 °F 60% 29.96 in 10.0 mi SSW 15.0 mph - N/A   Overcast
6:15 PM 71.6 °F 57.2 °F 60% 29.96 in 10.0 mi WSW 12.7 mph 17.3 mph N/A   Overcast
6:35 PM 69.8 °F 57.2 °F 64% 29.96 in 10.0 mi WSW 16.1 mph 19.6 mph N/A   Overcast
6:55 PM 68.0 °F 59.0 °F 73% 29.95 in 10.0 mi WSW 9.2 mph - N/A   Overcast
7:15 PM 69.8 °F 57.2 °F 64% 29.94 in 10.0 mi SSW 11.5 mph 16.1 mph N/A   Overcast
7:35 PM 69.8 °F 57.2 °F 64% 29.95 in 10.0 mi SW 10.4 mph - N/A   Overcast
7:55 PM 69.8 °F 59.0 °F 68% 29.93 in 10.0 mi SSW 10.4 mph - N/A   Overcast
8:15 PM 69.8 °F 57.2 °F 64% 29.94 in 10.0 mi WSW 6.9 mph - N/A   Overcast
8:35 PM 69.8 °F 57.2 °F 64% 29.93 in 10.0 mi SW 6.9 mph - N/A   Overcast
8:55 PM 69.8 °F 59.0 °F 68% 29.93 in 10.0 mi WSW 5.8 mph - N/A   Mostly Cloudy
9:15 PM 69.8 °F 59.0 °F 68% 29.93 in 10.0 mi WSW 6.9 mph - N/A   Overcast
9:35 PM 69.8 °F 59.0 °F 68% 29.92 in 10.0 mi SW 5.8 mph - N/A   Overcast
9:55 PM 69.8 °F 59.0 °F 68% 29.93 in 10.0 mi WSW 6.9 mph - N/A   Overcast
10:15 PM 68.0 °F 59.0 °F 73% 29.92 in 10.0 mi WSW 5.8 mph - N/A   Overcast
10:35 PM 68.0 °F 59.0 °F 73% 29.92 in 10.0 mi West 5.8 mph - N/A   Overcast
10:55 PM 68.0 °F 59.0 °F 73% 29.92 in 10.0 mi NW 6.9 mph - N/A   Overcast
11:15 PM 66.2 °F 59.0 °F 78% 29.92 in 10.0 mi NNW 6.9 mph - N/A   Overcast
11:35 PM 64.4 °F 59.0 °F 83% 29.91 in 10.0 mi NNW 4.6 mph - N/A   Mostly Cloudy
11:55 PM 64.4 °F 57.2 °F 77% 29.91 in 10.0 mi NW 6.9 mph - N/A   Mostly Cloudy